| time (UTC) | temp F | wind direction | speed MPH | gust MPH | rain 1hr in | rain 24hr in | rain mn in | humidity % | barometer mb |
| 20260906140003 | 61 | 28 | 0.0 | 0.0 | 0.00 | 0.07 | 0.03 | 94 | 1014.7 |
| 20260906134600 | 61 | 141 | 0.0 | 2.0 | 0.00 | 0.07 | 0.03 | 96 | 1014.5 |
| 20260906133121 | 60 | 117 | 0.0 | 0.0 | 0.00 | 0.07 | 0.03 | 97 | 1014.5 |
| 20260906131614 | 59 | 117 | 0.0 | 1.0 | 0.00 | 0.07 | 0.03 | 98 | 1014.4 |
| 20260906130105 | 59 | 347 | 0.0 | 0.0 | 0.00 | 0.07 | 0.03 | 98 | 1014.5 |
| 20260906124555 | 58 | 347 | 0.0 | 0.0 | 0.00 | 0.07 | 0.03 | 98 | 1014.4 |
| 20260906123054 | 58 | 347 | 0.0 | 0.0 | 0.00 | 0.07 | 0.03 | 99 | 1014.4 |
| 20260906121553 | 57 | 106 | 0.0 | 0.0 | 0.00 | 0.07 | 0.03 | 99 | 1014.2 |
| 20260906120058 | 57 | 106 | 0.0 | 1.0 | 0.00 | 0.07 | 0.03 | 99 | 1014.1 |
| 20260906114552 | 56 | 130 | 0.0 | 0.0 | 0.00 | 0.07 | 0.03 | 98 | 1013.9 |
| 20260906113047 | 56 | 130 | 0.0 | 0.0 | 0.00 | 0.07 | 0.03 | 99 | 1013.6 |
| 20260906111546 | 56 | 130 | 0.0 | 0.0 | 0.00 | 0.07 | 0.03 | 99 | 1013.5 |
| 20260906110045 | 56 | 130 | 0.0 | 0.0 | 0.00 | 0.07 | 0.03 | 99 | 1013.4 |
| 20260906104543 | 55 | 130 | 0.0 | 0.0 | 0.00 | 0.07 | 0.03 | 98 | 1013.3 |
| 20260906103040 | 55 | 131 | 0.0 | 0.0 | 0.00 | 0.07 | 0.03 | 98 | 1013.0 |
| 20260906101539 | 55 | 130 | 0.0 | 0.0 | 0.00 | 0.07 | 0.03 | 98 | 1012.9 |
| 20260906100039 | 55 | 130 | 0.0 | 0.0 | 0.01 | 0.07 | 0.03 | 98 | 1012.9 |
| 20260906094535 | 56 | 130 | 0.0 | 0.0 | 0.01 | 0.07 | 0.03 | 98 | 1012.7 |
| 20260906093043 | 57 | 130 | 0.0 | 0.0 | 0.02 | 0.07 | 0.03 | 98 | 1012.6 |
| 20260906091531 | 57 | 130 | 0.0 | 0.0 | 0.02 | 0.07 | 0.03 | 98 | 1012.6 |
| 20260906090031 | 57 | 130 | 0.0 | 0.0 | 0.02 | 0.06 | 0.02 | 98 | 1012.6 |
| 20260906084533 | 57 | 130 | 0.0 | 0.0 | 0.02 | 0.06 | 0.02 | 98 | 1012.5 |
| 20260906083029 | 57 | 130 | 0.0 | 0.0 | 0.01 | 0.05 | 0.01 | 98 | 1012.7 |
| 20260906081530 | 57 | 130 | 0.0 | 0.0 | 0.01 | 0.05 | 0.01 | 98 | 1012.5 |
| 20260906080026 | 57 | 130 | 0.0 | 0.0 | 0.00 | 0.04 | 0.00 | 98 | 1012.4 |
| 20260906074527 | 58 | 130 | 0.0 | 0.0 | 0.00 | 0.04 | 0.00 | 98 | 1012.1 |
| 20260906073027 | 58 | 130 | 0.0 | 0.0 | 0.00 | 0.04 | 0.00 | 98 | 1012.1 |
| 20260906071521 | 58 | 130 | 0.0 | 0.0 | 0.00 | 0.04 | 0.00 | 98 | 1012.2 |
| 20260906070019 | 59 | 130 | 0.0 | 0.0 | 0.00 | 0.04 | 0.00 | 98 | 1012.1 |
| 20260906064518 | 59 | 130 | 0.0 | 0.0 | 0.00 | 0.04 | 0.00 | 98 | 1012.0 |
| 20260906063015 | 59 | 130 | 0.0 | 0.0 | 0.00 | 0.04 | 0.00 | 98 | 1011.9 |
| 20260906061514 | 59 | 130 | 0.0 | 0.0 | 0.00 | 0.04 | 0.00 | 98 | 1012.0 |
| 20260906060021 | 59 | 130 | 0.0 | 0.0 | 0.00 | 0.04 | 0.00 | 98 | 1011.8 |
| 20260906054517 | 60 | 130 | 0.0 | 0.0 | 0.00 | 0.04 | 0.00 | 98 | 1011.8 |
| 20260906053019 | 60 | 130 | 0.0 | 0.0 | 0.00 | 0.04 | 0.00 | 98 | 1011.9 |
| 20260906051510 | 60 | 130 | 0.0 | 0.0 | 0.00 | 0.04 | 0.00 | 98 | 1012.0 |
| 20260906050010 | 60 | 130 | 0.0 | 0.0 | 0.00 | 0.04 | 0.00 | 98 | 1011.9 |
| 20260906044510 | 60 | 130 | 0.0 | 0.0 | 0.00 | 0.04 | 0.00 | 98 | 1011.9 |
| 20260906043010 | 60 | 130 | 0.0 | 0.0 | 0.00 | 0.04 | 0.00 | 98 | 1011.9 |
| 20260906041511 | 60 | 130 | 0.0 | 0.0 | 0.00 | 0.04 | 0.00 | 98 | 1011.9 |
| 20260906040007 | 60 | 130 | 0.0 | 0.0 | 0.00 | 0.04 | 0.00 | 97 | 1011.9 |
| 20260906034504 | 60 | 130 | 0.0 | 0.0 | 0.00 | 0.04 | 0.04 | 97 | 1011.8 |
| 20260906033003 | 60 | 130 | 0.0 | 0.0 | 0.00 | 0.04 | 0.04 | 97 | 1011.7 |
| 20260906031501 | 60 | 130 | 0.0 | 0.0 | 0.00 | 0.04 | 0.04 | 97 | 1011.7 |
| 20260906030001 | 60 | 130 | 0.0 | 0.0 | 0.00 | 0.04 | 0.04 | 97 | 1011.7 |
| 20260906024601 | 60 | 130 | 0.0 | 0.0 | 0.00 | 0.04 | 0.04 | 97 | 1011.5 |
| 20260906023100 | 60 | 130 | 0.0 | 0.0 | 0.00 | 0.04 | 0.04 | 97 | 1011.6 |
| 20260906021600 | 61 | 130 | 0.0 | 0.0 | 0.00 | 0.04 | 0.04 | 97 | 1011.5 |
| 20260905234528 | 61 | 130 | 0.0 | 0.0 | 0.00 | 0.04 | 0.04 | 94 | 1011.0 |
| 20260905233026 | 61 | 130 | 0.0 | 0.0 | 0.00 | 0.04 | 0.04 | 94 | 1010.9 |
| 20260905231527 | 62 | 130 | 0.0 | 0.0 | 0.00 | 0.04 | 0.04 | 93 | 1010.9 |
| 20260905230025 | 62 | 130 | 0.0 | 0.0 | 0.00 | 0.04 | 0.04 | 93 | 1010.8 |
| 20260905224524 | 63 | 130 | 0.0 | 0.0 | 0.00 | 0.04 | 0.04 | 92 | 1010.8 |
| 20260905223024 | 64 | 130 | 0.0 | 0.0 | 0.00 | 0.04 | 0.04 | 92 | 1010.7 |
| 20260905221533 | 64 | 130 | 0.0 | 0.0 | 0.00 | 0.04 | 0.04 | 93 | 1010.7 |
| 20260905220021 | 64 | 130 | 0.0 | 0.0 | 0.00 | 0.04 | 0.04 | 93 | 1010.4 |
| 20260905214519 | 64 | 130 | 0.0 | 0.0 | 0.00 | 0.04 | 0.04 | 94 | 1010.0 |
| 20260905213029 | 64 | 130 | 0.0 | 1.0 | 0.00 | 0.04 | 0.04 | 94 | 1010.2 |
| 20260905211521 | 64 | 131 | 0.0 | 0.0 | 0.00 | 0.04 | 0.04 | 94 | 1010.1 |
| 20260905210025 | 64 | 131 | 0.0 | 0.0 | 0.01 | 0.04 | 0.04 | 93 | 1010.2 |
| 20260905204515 | 64 | 131 | 0.0 | 0.0 | 0.03 | 0.04 | 0.04 | 94 | 1009.9 |
| 20260905203016 | 64 | 131 | 0.0 | 0.0 | 0.04 | 0.04 | 0.04 | 93 | 1010.0 |
| 20260905201524 | 64 | 131 | 0.0 | 0.0 | 0.04 | 0.04 | 0.04 | 91 | 1009.8 |
| 20260905200013 | 64 | 131 | 0.0 | 1.0 | 0.03 | 0.03 | 0.03 | 89 | 1009.9 |
| 20260905194512 | 66 | 113 | 0.0 | 3.0 | 0.01 | 0.01 | 0.01 | 84 | 1009.8 |
| 20260905193012 | 68 | 103 | 0.0 | 3.0 | 0.00 | 0.00 | 0.00 | 81 | 1009.6 |
| 20260905191510 | 69 | 91 | 0.0 | 3.0 | 0.00 | 0.00 | 0.00 | 79 | 1009.5 |
| 20260905190008 | 69 | 95 | 0.0 | 3.0 | 0.00 | 0.00 | 0.00 | 79 | 1009.4 |
| 20260905184508 | 70 | 129 | 0.0 | 3.0 | 0.00 | 0.00 | 0.00 | 80 | 1009.4 |
| 20260905183006 | 70 | 113 | 0.0 | 1.0 | 0.00 | 0.00 | 0.00 | 79 | 1009.2 |
| 20260905181507 | 70 | 77 | 0.0 | 1.0 | 0.00 | 0.00 | 0.00 | 77 | 1009.3 |
| 20260905180006 | 70 | 103 | 0.0 | 4.0 | 0.00 | 0.00 | 0.00 | 78 | 1009.3 |
| 20260905174512 | 69 | 124 | 0.0 | 2.0 | 0.00 | 0.00 | 0.00 | 80 | 1009.2 |
| 20260905173017 | 69 | 128 | 0.0 | 1.0 | 0.00 | 0.00 | 0.00 | 83 | 1009.2 |
| 20260905171504 | 67 | 65 | 0.0 | 5.0 | 0.00 | 0.00 | 0.00 | 86 | 1009.4 |
| 20260905170005 | 66 | 49 | 0.0 | 3.0 | 0.00 | 0.00 | 0.00 | 85 | 1009.3 |
| 20260905164502 | 68 | 64 | 0.0 | 2.0 | 0.00 | 0.00 | 0.00 | 82 | 1009.2 |
| 20260905163105 | 70 | 82 | 0.0 | 3.0 | 0.00 | 0.00 | 0.00 | 79 | 1008.9 |
| 20260905161600 | 70 | 130 | 0.0 | 1.0 | 0.00 | 0.00 | 0.00 | 80 | 1009.0 |
| 20260905160059 | 71 | 133 | 0.0 | 2.0 | 0.00 | 0.00 | 0.00 | 78 | 1008.9 |
| 20260905154559 | 71 | 150 | 0.0 | 2.0 | 0.00 | 0.00 | 0.00 | 79 | 1009.0 |
| 20260905153057 | 71 | 113 | 0.0 | 1.0 | 0.00 | 0.00 | 0.00 | 78 | 1008.9 |
| 20260905151557 | 71 | 357 | 0.0 | 1.0 | 0.00 | 0.00 | 0.00 | 80 | 1008.8 |
| 20260905150055 | 70 | 138 | 0.0 | 0.0 | 0.00 | 0.00 | 0.00 | 81 | 1008.9 |
| 20260905144554 | 70 | 23 | 0.0 | 1.0 | 0.00 | 0.00 | 0.00 | 81 | 1008.9 |
| 20260905143054 | 70 | 129 | 0.0 | 1.0 | 0.00 | 0.00 | 0.00 | 80 | 1008.9 |
| 20260905141605 | 70 | 130 | 0.0 | 0.0 | 0.00 | 0.00 | 0.00 | 81 | 1008.9 |